When you browse on this site, cookies collect data to enhance your experience and personalize the content and advertising you see.
Visit our Privacy Policy to learn more. By continuing to use the site, you agree to this use of cookies and data.
  • In United Kingdom
  • List of Countries
  • For 7 days
  • Water Temperature
  • Satellite Maps
  • Weather Map
  • Weather Widgets
  • user-avatar
    Login

    Hourly Weather Sylhet

    Today, 21 May, Tuesday

    Time Temperature Precipitation Wind Pressure Humidity
    00:00 +29°C° 0 mm 1 mps 755 mmHg 78%
    01:00 +29°C° 0.2 mm 2 mps 755 mmHg 79%
    02:00 +28°C° 0.2 mm 2 mps 754 mmHg 81%
    03:00 +28°C° 0.2 mm 2 mps 754 mmHg 83%
    04:00 +28°C° 0 mm 2 mps 754 mmHg 83%
    05:00 +28°C° 0 mm 2 mps 754 mmHg 83%
    06:00 +29°C° 0 mm 1 mps 755 mmHg 77%
    07:00 +30°C° 0.3 mm 1 mps 755 mmHg 71%
    08:00 +32°C° 0.3 mm 1 mps 755 mmHg 66%
    09:00 +34°C° 0.3 mm 1 mps 755 mmHg 60%
    10:00 +36°C° 0 mm 1 mps 755 mmHg 55%
    11:00 +37°C° 0 mm 1 mps 755 mmHg 50%
    12:00 +39°C° 0 mm 1 mps 755 mmHg 48%
    13:00 +39°C° 0 mm 1 mps 754 mmHg 46%
    14:00 +39°C° 0 mm 1 mps 754 mmHg 45%
    15:00 +40°C° 0 mm 1 mps 753 mmHg 43%
    16:00 +39°C° 0 mm 1 mps 753 mmHg 46%
    17:00 +37°C° 0 mm 1 mps 753 mmHg 50%
    18:00 +36°C° 0 mm 1 mps 753 mmHg 54%
    19:00 +35°C° 0 mm 1 mps 753 mmHg 56%
    20:00 +34°C° 0 mm 1 mps 753 mmHg 57%
    21:00 +34°C° 0 mm 2 mps 754 mmHg 59%
    22:00 +32°C° 0.7 mm 2 mps 754 mmHg 66%
    23:00 +31°C° 0.7 mm 2 mps 754 mmHg 72%

    Tomorrow, 22 May, Wednesday

    Time Temperature Precipitation Wind Pressure Humidity
    00:00 +30°C° 0.7 mm 2 mps 754 mmHg 79%
    01:00 +29°C° 1.1 mm 2 mps 754 mmHg 82%
    02:00 +29°C° 1.1 mm 2 mps 754 mmHg 85%
    03:00 +28°C° 1.1 mm 2 mps 753 mmHg 88%
    04:00 +28°C° 1.3 mm 2 mps 754 mmHg 89%
    05:00 +28°C° 1.3 mm 2 mps 754 mmHg 90%
    06:00 +28°C° 1.3 mm 2 mps 754 mmHg 91%
    07:00 +29°C° 0.2 mm 2 mps 754 mmHg 85%
    08:00 +31°C° 0.2 mm 2 mps 754 mmHg 79%
    09:00 +34°C° 0.2 mm 3 mps 755 mmHg 74%
    10:00 +35°C° 0 mm 2 mps 754 mmHg 66%
    11:00 +37°C° 0 mm 2 mps 754 mmHg 59%
    12:00 +38°C° 0 mm 2 mps 754 mmHg 52%
    13:00 +39°C° 0.3 mm 2 mps 753 mmHg 50%
    14:00 +39°C° 0.3 mm 2 mps 752 mmHg 48%
    15:00 +40°C° 0.3 mm 1 mps 751 mmHg 45%
    16:00 +39°C° 0 mm 1 mps 751 mmHg 50%
    17:00 +37°C° 0 mm 1 mps 751 mmHg 54%
    18:00 +36°C° 0 mm 1 mps 750 mmHg 59%
    19:00 +35°C° 0.5 mm 1 mps 751 mmHg 64%
    20:00 +34°C° 0.5 mm 2 mps 752 mmHg 69%
    21:00 +32°C° 0.5 mm 2 mps 752 mmHg 73%
    22:00 +31°C° 2.7 mm 2 mps 753 mmHg 78%
    23:00 +30°C° 2.7 mm 2 mps 753 mmHg 82%

    Day after tomorrow, 23 May, Thursday

    Time Temperature Precipitation Wind Pressure Humidity
    00:00 +29°C° 2.7 mm 2 mps 753 mmHg 86%
    01:00 +29°C° 1 mm 2 mps 753 mmHg 88%
    02:00 +29°C° 1 mm 2 mps 753 mmHg 90%
    03:00 +28°C° 1 mm 2 mps 753 mmHg 92%
    04:00 +29°C° 1.7 mm 2 mps 753 mmHg 92%
    05:00 +29°C° 1.7 mm 2 mps 753 mmHg 91%
    06:00 +29°C° 1.7 mm 2 mps 753 mmHg 91%
    07:00 +30°C° 0.2 mm 3 mps 754 mmHg 85%
    08:00 +31°C° 0.2 mm 3 mps 754 mmHg 79%
    09:00 +34°C° 0.2 mm 3 mps 754 mmHg 74%
    10:00 +35°C° 0.1 mm 3 mps 754 mmHg 69%
    11:00 +36°C° 0.1 mm 3 mps 754 mmHg 64%
    12:00 +37°C° 0.1 mm 3 mps 753 mmHg 59%
    13:00 +38°C° 1.7 mm 3 mps 752 mmHg 57%
    14:00 +38°C° 1.7 mm 4 mps 751 mmHg 55%
    15:00 +40°C° 1.7 mm 4 mps 751 mmHg 52%
    16:00 +37°C° 3 mm 3 mps 751 mmHg 62%
    17:00 +34°C° 3 mm 3 mps 751 mmHg 71%
    18:00 +31°C° 3 mm 2 mps 750 mmHg 81%
    19:00 +30°C° 2.5 mm 2 mps 751 mmHg 82%
    20:00 +30°C° 2.5 mm 2 mps 752 mmHg 84%
    21:00 +29°C° 2.5 mm 2 mps 752 mmHg 85%
    22:00 +29°C° 4 mm 3 mps 752 mmHg 87%
    23:00 +29°C° 4 mm 3 mps 753 mmHg 88%

    24 May, Friday

    Time Temperature Precipitation Wind Pressure Humidity
    00:00 +29°C° 4 mm 4 mps 753 mmHg 89%
    01:00 +29°C° 15.6 mm 4 mps 753 mmHg 91%
    02:00 +28°C° 15.6 mm 3 mps 753 mmHg 92%
    03:00 +28°C° 15.6 mm 3 mps 753 mmHg 93%
    04:00 +28°C° 7.3 mm 3 mps 753 mmHg 92%
    05:00 +28°C° 7.3 mm 3 mps 753 mmHg 92%
    06:00 +28°C° 7.3 mm 3 mps 753 mmHg 91%
    07:00 +28°C° 6.7 mm 3 mps 754 mmHg 90%
    08:00 +29°C° 6.7 mm 3 mps 754 mmHg 89%
    09:00 +29°C° 6.7 mm 4 mps 755 mmHg 88%
    10:00 +28°C° 11.4 mm 4 mps 755 mmHg 90%
    11:00 +28°C° 11.4 mm 4 mps 754 mmHg 92%
    12:00 +27°C° 11.4 mm 4 mps 754 mmHg 94%
    13:00 +27°C° 6.2 mm 4 mps 753 mmHg 94%
    14:00 +27°C° 6.2 mm 4 mps 753 mmHg 94%
    15:00 +27°C° 6.2 mm 4 mps 752 mmHg 94%
    16:00 +27°C° 3.5 mm 4 mps 751 mmHg 94%
    17:00 +27°C° 3.5 mm 4 mps 751 mmHg 94%
    18:00 +27°C° 3.5 mm 3 mps 751 mmHg 94%
    19:00 +27°C° 1.3 mm 3 mps 751 mmHg 94%
    20:00 +26°C° 1.3 mm 3 mps 752 mmHg 94%
    21:00 +26°C° 1.3 mm 3 mps 753 mmHg 95%
    22:00 +26°C° 2 mm 3 mps 753 mmHg 95%
    23:00 +26°C° 2 mm 2 mps 753 mmHg 95%

    25 May, Saturday

    Time Temperature Precipitation Wind Pressure Humidity
    00:00 +26°C° 2 mm 2 mps 753 mmHg 96%
    01:00 +26°C° 1.4 mm 2 mps 752 mmHg 96%
    02:00 +26°C° 1.4 mm 2 mps 752 mmHg 96%
    03:00 +26°C° 1.4 mm 2 mps 751 mmHg 96%
    04:00 +26°C° 6.8 mm 3 mps 751 mmHg 96%
    05:00 +26°C° 6.8 mm 3 mps 751 mmHg 96%
    06:00 +26°C° 6.8 mm 3 mps 751 mmHg 97%
    07:00 +26°C° 3.6 mm 3 mps 752 mmHg 96%
    08:00 +26°C° 3.6 mm 4 mps 752 mmHg 96%
    09:00 +26°C° 3.6 mm 4 mps 753 mmHg 96%
    10:00 +26°C° 3.5 mm 4 mps 753 mmHg 95%
    11:00 +27°C° 3.5 mm 4 mps 752 mmHg 95%
    12:00 +27°C° 3.5 mm 4 mps 752 mmHg 95%
    13:00 +27°C° 1 mm 4 mps 751 mmHg 95%
    14:00 +27°C° 1 mm 4 mps 751 mmHg 94%
    15:00 +27°C° 1 mm 4 mps 750 mmHg 94%
    16:00 +27°C° 0.3 mm 4 mps 750 mmHg 94%
    17:00 +27°C° 0.3 mm 3 mps 750 mmHg 94%
    18:00 +27°C° 0.3 mm 3 mps 749 mmHg 94%
    19:00 +27°C° 0.3 mm 3 mps 750 mmHg 94%
    20:00 +27°C° 0.3 mm 3 mps 750 mmHg 95%
    21:00 +27°C° 0.3 mm 3 mps 751 mmHg 95%
    22:00 +27°C° 0 mm 3 mps 751 mmHg 95%
    23:00 +27°C° 0 mm 3 mps 751 mmHg 96%

    26 May, Sunday

    Time Temperature Precipitation Wind Pressure Humidity
    00:00 +27°C° 0 mm 2 mps 751 mmHg 96%
    01:00 +27°C° 1.6 mm 2 mps 751 mmHg 96%
    02:00 +27°C° 1.6 mm 2 mps 750 mmHg 96%
    03:00 +27°C° 1.6 mm 2 mps 750 mmHg 97%
    04:00 +27°C° 0.5 mm 2 mps 750 mmHg 96%
    05:00 +27°C° 0.5 mm 2 mps 751 mmHg 96%
    06:00 +27°C° 0.5 mm 3 mps 751 mmHg 96%
    07:00 +28°C° 0.6 mm 3 mps 751 mmHg 95%
    08:00 +28°C° 0.6 mm 3 mps 752 mmHg 94%
    09:00 +28°C° 0.6 mm 3 mps 752 mmHg 93%
    10:00 +29°C° 0.2 mm 3 mps 752 mmHg 90%
    11:00 +30°C° 0.2 mm 3 mps 752 mmHg 87%
    12:00 +31°C° 0.2 mm 3 mps 751 mmHg 85%
    13:00 +34°C° 0.5 mm 3 mps 751 mmHg 78%
    14:00 +36°C° 0.5 mm 2 mps 750 mmHg 70%
    15:00 +37°C° 0.5 mm 2 mps 749 mmHg 63%
    16:00 +37°C° 1 mm 2 mps 749 mmHg 67%
    17:00 +36°C° 1 mm 2 mps 749 mmHg 71%
    18:00 +35°C° 1 mm 2 mps 749 mmHg 75%
    19:00 +34°C° 0.4 mm 2 mps 750 mmHg 79%
    20:00 +31°C° 0.4 mm 1 mps 751 mmHg 82%
    21:00 +30°C° 0.4 mm 1 mps 753 mmHg 86%
    22:00 +30°C° 0.4 mm 1 mps 752 mmHg 88%
    23:00 +29°C° 0.4 mm 1 mps 752 mmHg 89%
    Show more